Total_Precipitation_Accumulation
0.00 0.00 0.02 0.09 0.22 0.43 0.59 0.40 0.31 0.23 0.23 0.26 0.35 0.34 0.28 0.30 0.28 0.26 0.11 0.05 0.01 0.00 0.01 0.05 0.11 0.11 0.09 0.07 0.08 0.09 0.11 0.11 0.11 0.11 0.11 0.08 0.05 0.03 0.02 0.01 0.01 0.01 0.02 0.02 0.03 0.03 0.02 0.02 0.02
0.00 0.00 0.03 0.09 0.20 0.54 0.71 0.34 0.25 0.25 0.22 0.33 0.38 0.28 0.21 0.21 0.14 0.09 0.08 0.06 0.02 0.01 0.01 0.01 0.08 0.10 0.09 0.08 0.08 0.08 0.09 0.08 0.09 0.09 0.08 0.06 0.03 0.03 0.02 0.02 0.02 0.02 0.03 0.03 0.03 0.03 0.03 0.01 0.01
0.00 0.00 0.02 0.05 0.12 0.35 0.46 0.26 0.22 0.29 0.37 0.52 0.55 0.32 0.24 0.19 0.14 0.09 0.05 0.03 0.02 0.01 0.01 0.03 0.07 0.08 0.08 0.08 0.07 0.07 0.07 0.07 0.06 0.06 0.06 0.04 0.03 0.03 0.03 0.02 0.03 0.03 0.05 0.05 0.05 0.05 0.03 0.02 0.01
0.00 0.01 0.02 0.02 0.08 0.17 0.26 0.18 0.25 0.33 0.56 0.64 0.61 0.41 0.30 0.25 0.19 0.13 0.03 0.01 0.02 0.02 0.02 0.04 0.07 0.08 0.09 0.08 0.08 0.07 0.06 0.06 0.05 0.05 0.05 0.03 0.03 0.03 0.04 0.04 0.04 0.05 0.07 0.07 0.06 0.06 0.05 0.03 0.02
0.00 0.01 0.02 0.02 0.04 0.09 0.12 0.10 0.17 0.27 0.46 0.62 0.57 0.52 0.42 0.40 0.29 0.14 0.04 0.01 0.01 0.02 0.02 0.04 0.09 0.10 0.10 0.09 0.09 0.08 0.07 0.06 0.06 0.05 0.04 0.03 0.04 0.04 0.05 0.07 0.07 0.07 0.09 0.10 0.09 0.09 0.08 0.08 0.05
0.00 0.01 0.01 0.01 0.03 0.06 0.08 0.09 0.19 0.34 0.51 0.61 0.68 0.66 0.49 0.34 0.21 0.12 0.05 0.02 0.02 0.02 0.03 0.05 0.09 0.11 0.12 0.11 0.11 0.10 0.09 0.08 0.07 0.07 0.05 0.05 0.05 0.06 0.07 0.09 0.11 0.11 0.11 0.10 0.10 0.09 0.09 0.09 0.08
0.00 0.00 0.00 0.00 0.01 0.03 0.07 0.12 0.23 0.36 0.44 0.61 0.87 0.79 0.47 0.33 0.22 0.15 0.11 0.06 0.05 0.04 0.04 0.06 0.07 0.10 0.12 0.14 0.13 0.11 0.10 0.10 0.09 0.08 0.06 0.05 0.05 0.06 0.07 0.10 0.13 0.14 0.14 0.12 0.12 0.11 0.12 0.13 0.12
0.00 0.00 0.00 0.00 0.00 0.02 0.06 0.13 0.24 0.36 0.59 0.77 0.76 0.67 0.57 0.38 0.32 0.28 0.17 0.13 0.10 0.09 0.08 0.07 0.11 0.17 0.17 0.17 0.16 0.15 0.13 0.12 0.10 0.08 0.06 0.06 0.07 0.10 0.14 0.14 0.16 0.20 0.22 0.22 0.21 0.22 0.24 0.24 0.21
0.00 0.00 0.00 0.00 0.00 0.03 0.10 0.19 0.26 0.32 0.51 0.63 0.67 0.61 0.42 0.33 0.39 0.37 0.24 0.18 0.14 0.11 0.12 0.15 0.20 0.23 0.26 0.26 0.25 0.25 0.25 0.25 0.20 0.21 0.20 0.18 0.19 0.25 0.37 0.38 0.43 0.43 0.43 0.46 0.44 0.46 0.48 0.46 0.33
0.00 0.00 0.00 0.00 0.00 0.03 0.09 0.18 0.30 0.36 0.61 0.89 0.92 0.94 0.59 0.53 0.52 0.45 0.33 0.23 0.20 0.20 0.26 0.29 0.29 0.29 0.29 0.31 0.46 0.54 0.55 0.61 0.55 0.57 0.57 0.55 0.53 0.48 0.45 0.62 0.74 0.83 0.94 0.93 0.92 1.06 0.92 0.67 0.46
0.00 0.00 0.00 0.00 0.00 0.01 0.04 0.09 0.13 0.31 0.69 1.04 0.99 0.96 0.77 0.69 0.65 0.60 0.54 0.49 0.42 0.39 0.35 0.34 0.37 0.43 0.50 0.60 0.66 0.72 0.80 0.93 1.03 1.07 1.07 1.12 0.99 0.82 0.76 0.99 1.15 1.15 1.17 1.05 1.29 1.53 1.12 1.01 0.98
0.00 0.00 0.00 0.00 0.00 0.01 0.03 0.10 0.19 0.33 0.73 0.96 0.81 0.68 0.63 0.73 0.83 0.84 0.90 0.84 0.81 0.67 0.62 0.62 0.62 0.66 0.70 0.77 0.76 0.80 0.81 0.91 0.98 1.08 1.19 1.34 1.35 1.22 1.22 1.35 1.24 1.19 1.21 1.37 1.47 1.58 1.41 1.30 1.28
0.00 0.00 0.00 0.00 0.00 0.01 0.04 0.14 0.26 0.37 0.64 0.59 0.48 0.51 0.81 0.99 1.08 1.14 1.15 1.11 1.01 1.04 1.10 1.10 1.05 0.99 0.93 0.85 0.79 0.78 0.77 0.73 0.72 0.83 1.08 1.27 1.36 1.41 1.49 1.33 1.18 1.04 1.30 1.56 1.59 1.44 1.52 1.50 1.59
0.00 0.00 0.01 0.02 0.01 0.02 0.04 0.09 0.31 0.41 0.53 0.58 0.53 0.65 1.03 1.41 1.43 1.39 1.40 1.48 1.45 1.45 1.53 1.49 1.52 1.45 1.25 1.02 0.88 0.81 0.73 0.73 0.77 0.84 0.96 1.15 1.25 1.32 1.36 1.29 1.19 1.14 1.31 1.48 1.51 1.45 1.61 1.65 1.61
0.00 0.03 0.09 0.07 0.03 0.03 0.04 0.15 0.39 0.55 0.56 0.73 0.76 0.87 1.19 1.47 1.46 1.57 1.61 1.67 1.81 1.94 2.10 2.18 2.12 1.97 1.79 1.55 1.25 1.00 0.86 0.84 0.88 0.92 0.86 0.91 1.01 1.04 1.15 1.15 1.13 1.17 1.22 1.26 1.24 1.24 1.41 1.35 1.23
0.01 0.07 0.21 0.15 0.06 0.06 0.11 0.48 0.69 0.61 0.55 0.76 0.93 1.08 1.35 1.60 1.60 1.77 1.86 1.95 2.25 2.49 2.81 2.95 2.80 2.53 2.14 1.78 1.49 1.27 1.16 1.11 0.99 0.90 0.78 0.67 0.73 0.79 0.87 0.84 0.88 0.94 0.99 1.00 0.96 0.98 1.07 1.12 1.19
0.02 0.07 0.18 0.17 0.12 0.09 0.17 0.61 0.65 0.40 0.51 0.73 1.00 1.24 1.38 1.46 1.67 1.98 2.15 2.42 2.98 3.60 3.97 3.77 3.24 2.88 2.31 1.75 1.45 1.38 1.40 1.30 1.13 1.01 0.87 0.71 0.66 0.70 0.76 0.74 0.73 0.71 0.74 0.76 0.72 0.79 0.88 0.93 0.99
0.03 0.06 0.13 0.19 0.14 0.19 0.28 0.39 0.50 0.50 0.66 0.84 1.01 1.10 1.24 1.34 1.54 1.88 2.15 2.55 3.24 4.08 4.62 4.44 3.67 2.95 2.32 1.91 1.62 1.44 1.37 1.24 1.08 0.98 0.85 0.71 0.62 0.61 0.60 0.57 0.54 0.50 0.52 0.55 0.59 0.67 0.76 0.78 0.83
0.03 0.06 0.12 0.20 0.15 0.22 0.30 0.40 0.53 0.66 0.87 0.89 0.90 0.89 0.99 1.22 1.44 1.67 2.01 2.47 2.88 3.32 3.65 3.56 2.82 2.25 1.88 1.53 1.13 0.94 0.90 0.81 0.72 0.70 0.64 0.61 0.56 0.52 0.47 0.41 0.40 0.37 0.36 0.38 0.40 0.47 0.55 0.59 0.67
0.04 0.07 0.12 0.17 0.13 0.12 0.23 0.48 0.60 0.68 0.82 0.78 0.76 0.65 0.73 1.13 1.50 1.83 2.18 2.38 2.18 2.16 2.17 1.67 1.31 1.07 0.88 0.75 0.56 0.43 0.39 0.36 0.35 0.35 0.35 0.33 0.37 0.40 0.39 0.37 0.36 0.35 0.34 0.34 0.36 0.41 0.45 0.47 0.54
0.07 0.08 0.09 0.15 0.16 0.19 0.32 0.60 0.74 0.67 0.65 0.56 0.55 0.62 1.00 1.46 1.75 2.02 1.94 1.68 1.48 1.35 1.16 0.80 0.60 0.58 0.48 0.38 0.28 0.23 0.21 0.21 0.21 0.22 0.22 0.22 0.23 0.26 0.29 0.33 0.36 0.35 0.31 0.30 0.32 0.34 0.35 0.35 0.38
0.07 0.06 0.04 0.04 0.11 0.31 0.43 0.82 0.92 0.78 0.69 0.47 0.49 0.81 1.33 1.60 1.80 1.65 1.10 0.73 0.66 0.63 0.60 0.63 0.61 0.49 0.35 0.30 0.21 0.16 0.13 0.13 0.13 0.15 0.15 0.17 0.16 0.16 0.18 0.24 0.29 0.30 0.31 0.31 0.25 0.26 0.31 0.32 0.28
0.04 0.03 0.03 0.05 0.12 0.28 0.50 0.92 1.07 0.82 0.63 0.41 0.33 0.45 0.82 1.04 0.92 0.59 0.34 0.23 0.27 0.35 0.52 0.74 0.74 0.52 0.35 0.29 0.24 0.23 0.20 0.19 0.17 0.17 0.18 0.20 0.20 0.20 0.17 0.17 0.22 0.27 0.33 0.38 0.34 0.32 0.30 0.29 0.26
0.03 0.04 0.09 0.17 0.28 0.55 0.59 0.74 0.91 0.73 0.59 0.43 0.26 0.31 0.53 0.55 0.35 0.20 0.16 0.20 0.26 0.30 0.37 0.46 0.54 0.61 0.54 0.48 0.37 0.35 0.34 0.31 0.28 0.26 0.25 0.25 0.26 0.28 0.27 0.27 0.30 0.33 0.33 0.34 0.36 0.39 0.38 0.36 0.33
0.03 0.04 0.24 0.55 0.71 0.68 0.46 0.61 0.81 0.50 0.37 0.27 0.15 0.13 0.15 0.16 0.16 0.19 0.21 0.24 0.21 0.17 0.16 0.18 0.22 0.32 0.38 0.41 0.43 0.43 0.42 0.37 0.32 0.28 0.24 0.27 0.25 0.27 0.29 0.29 0.33 0.37 0.37 0.34 0.32 0.33 0.39 0.45 0.45
0.03 0.03 0.08 0.15 0.21 0.29 0.38 0.69 0.73 0.43 0.21 0.09 0.04 0.03 0.02 0.03 0.05 0.07 0.09 0.08 0.07 0.08 0.08 0.08 0.08 0.10 0.12 0.15 0.18 0.23 0.29 0.27 0.26 0.30 0.24 0.25 0.29 0.29 0.27 0.25 0.25 0.28 0.31 0.32 0.30 0.26 0.27 0.34 0.43
0.02 0.02 0.02 0.03 0.06 0.19 0.45 0.63 0.46 0.25 0.13 0.05 0.03 0.02 0.01 0.01 0.01 0.01 0.02 0.03 0.04 0.04 0.04 0.05 0.04 0.04 0.04 0.05 0.06 0.07 0.12 0.15 0.16 0.17 0.16 0.17 0.24 0.26 0.24 0.22 0.20 0.20 0.23 0.26 0.28 0.26 0.27 0.27 0.28
0.02 0.02 0.02 0.03 0.06 0.13 0.32 0.63 0.61 0.28 0.17 0.07 0.03 0.02 0.02 0.01 0.01 0.00 0.01 0.01 0.01 0.02 0.02 0.03 0.04 0.04 0.03 0.03 0.03 0.02 0.04 0.08 0.10 0.11 0.12 0.15 0.18 0.21 0.20 0.17 0.14 0.14 0.15 0.17 0.22 0.25 0.28 0.33 0.36
0.03 0.02 0.03 0.04 0.05 0.08 0.19 0.34 0.27 0.20 0.13 0.06 0.02 0.00 0.00 0.00 0.00 0.01 0.00 0.00 0.01 0.01 0.01 0.02 0.02 0.02 0.02 0.02 0.01 0.01 0.01 0.02 0.06 0.11 0.15 0.18 0.20 0.20 0.20 0.17 0.15 0.12 0.12 0.15 0.18 0.21 0.27 0.33 0.42
0.03 0.04 0.03 0.04 0.04 0.05 0.09 0.15 0.14 0.13 0.09 0.05 0.01 0.00 0.00 0.00 0.00 0.00 0.00 0.00 0.01 0.01 0.01 0.01 0.01 0.01 0.01 0.01 0.00 0.00 0.00 0.00 0.01 0.03 0.08 0.14 0.20 0.21 0.21 0.20 0.17 0.12 0.10 0.12 0.14 0.16 0.21 0.29 0.39